Terminal Aerodrome Forecast
Issued by NWS

Home | Current Version | Previous Version | Text Only | Print | Product List | Glossary On
Versions: 1 2 3 4 5 6 7 8 9 10 11 12 13 14 15
000
FTUS45 KVEF 050520
TAFVGT
TAF
KVGT 050520Z 0506/0606 33005KT P6SM BKN250
     FM051500 VRB05KT P6SM BKN200
     FM060300 32006KT P6SM BKN200=

USA.gov is the U.S. government's official web portal to all federal, state and local government web resources and services.